Grand Forks, ND

7:27 PM CDT on March 25, 2017 (GMT -0500)
Grand Forks International

Weather History for KGFK - November, 2013

Change the Weather History Date:

Wednesday, November 6, 2013

  Actual Average Record
Temperature  
Mean Temperature 26 °F 32 °F  
Max Temperature 37 °F 41 °F 72 °F (2016)
Min Temperature 14 °F 22 °F -2 °F (1991)
Degree Days  
Heating Degree Days 39 33  
Month to date heating degree days 179 190  
Since 1 July heating degree days 1082 1221  
Cooling Degree Days 0 0  
Month to date cooling degree days 0 0  
Year to date cooling degree days 487 379  
Moisture  
Dew Point 15 °F    
Average Humidity 66    
Maximum Humidity 88    
Minimum Humidity 44    
Precipitation  
Precipitation 0.00 in 0.05 in 0.93 in (2008)
Month to date precipitation 0.00 0.25  
Year to date precipitation 18.68 19.50  
Snow  
Snow 0.00 in 0.20 in 1.00 in (1966)
Month to date snowfall 0.0 1.0  
Since 1 July snowfall T 2.5  
Since 1 September snowfall T 2.5  
Snow Depth 0.00 in    
Sea Level Pressure  
Sea Level Pressure 30.12 in    
Wind  
Wind Speed 2 mph (North)    
Max Wind Speed 7 mph    
Max Gust Speed 8 mph    
Visibility 10 miles    
Events      
T = Trace of Precipitation, MM = Missing Value Source: NWS Daily Summary

Daily Weather History Graph

Daily Weather History Graph

Search for Another Location

Airport or City:

Trip Planner

Search our weather history database for the weather conditions in past years. The results will help you decide how hot, cold, wet, or windy it might be!

Date:

Astronomy

Nov. 06, 2013 Rise Set
Actual Time 7:21 AM CST 5:02 PM CST
Civil Twilight 6:48 AM CST 5:35 PM CST
Nautical Twilight 6:11 AM CST 6:12 PM CST
Astronomical Twilight 5:35 AM CST 6:48 PM CST
Moon 10:44 AM CST (11/6) 8:02 PM CST (11/6)
Length of Visible Light 10h 46m
Length of Day
9h 40m
Waxing Crescent, 14% of the Moon is Illuminated
Nov 6
Waxing Crescent
Nov 9
First Quarter
Nov 17
Full
Nov 25
Last Quarter
Dec 2
New

Hourly Weather History & Observations

Time (CST) Temp. Windchill Dew Point Humidity Pressure Visibility Wind Dir Wind Speed Gust Speed Precip Events Conditions
12:53 AM 18.0 °F 8.7 °F 12.9 °F 81% 30.13 in 10.0 mi WNW 6.9 mph - N/A   Clear
1:53 AM 15.1 °F 9.4 °F 10.9 °F 84% 30.12 in 10.0 mi WNW 3.5 mph - N/A   Clear
2:53 AM 16.0 °F 8.8 °F 12.0 °F 84% 30.12 in 10.0 mi WNW 4.6 mph - N/A   Clear
3:53 AM 17.1 °F - 12.0 °F 81% 30.11 in 10.0 mi Calm Calm - N/A   Scattered Clouds
4:53 AM 19.0 °F - 15.1 °F 85% 30.10 in 10.0 mi Calm Calm - N/A   Overcast
5:53 AM 15.1 °F 6.4 °F 10.9 °F 84% 30.10 in 10.0 mi SSE 5.8 mph - N/A   Scattered Clouds
6:53 AM 17.1 °F 11.7 °F 12.9 °F 84% 30.11 in 10.0 mi South 3.5 mph - N/A   Overcast
7:53 AM 19.9 °F - 15.1 °F 81% 30.12 in 10.0 mi Calm Calm - N/A   Overcast
8:53 AM 23.0 °F - 17.1 °F 78% 30.12 in 10.0 mi Calm Calm - N/A   Overcast
9:53 AM 25.0 °F 20.7 °F 19.0 °F 78% 30.12 in 10.0 mi SE 3.5 mph - N/A   Overcast
10:53 AM 28.0 °F 24.2 °F 19.9 °F 72% 30.12 in 10.0 mi NE 3.5 mph - N/A   Overcast
11:53 AM 30.9 °F - 17.1 °F 57% 30.11 in 10.0 mi Calm Calm - N/A   Overcast
12:53 PM 32.0 °F - 16.0 °F 52% 30.09 in 10.0 mi Calm Calm - N/A   Scattered Clouds
1:53 PM 34.0 °F - 16.0 °F 48% 30.09 in 10.0 mi Calm Calm - N/A   Partly Cloudy
2:53 PM 36.0 °F - 15.1 °F 43% 30.09 in 10.0 mi Calm Calm - N/A   Partly Cloudy
3:53 PM 36.0 °F 33.3 °F 16.0 °F 44% 30.11 in 10.0 mi NE 3.5 mph - N/A   Partly Cloudy
4:53 PM 33.1 °F - 16.0 °F 50% 30.12 in 10.0 mi Calm Calm - N/A   Partly Cloudy
5:53 PM 28.0 °F - 16.0 °F 61% 30.14 in 10.0 mi Calm Calm - N/A   Partly Cloudy
6:53 PM 26.1 °F - 18.0 °F 71% 30.15 in 10.0 mi Calm Calm - N/A   Partly Cloudy
7:53 PM 27.0 °F 21.6 °F 19.9 °F 75% 30.15 in 10.0 mi ENE 4.6 mph - N/A   Mostly Cloudy
8:53 PM 25.0 °F 19.3 °F 17.1 °F 72% 30.14 in 10.0 mi ENE 4.6 mph - N/A   Mostly Cloudy
9:53 PM 19.9 °F - 15.1 °F 81% 30.17 in 10.0 mi Calm Calm - N/A   Mostly Cloudy
10:53 PM 19.9 °F 14.9 °F 15.1 °F 81% 30.17 in 10.0 mi WNW 3.5 mph - N/A   Scattered Clouds
11:53 PM 19.0 °F 13.9 °F 14.0 °F 81% 30.18 in 10.0 mi WNW 3.5 mph - N/A   Mostly Cloudy